Location: Newark
(41.0400°S, 62.7845°W)
Time: 21:07:23
(UTC+00:00)

Vanguard 1 Rocket - All Passes

Search period start: 06 December 2021 00:00
Search period end: 16 December 2021 00:00
Orbit: 650 x 4226 km, 34.3° (Epoch: 04 December)

Date Brightness Start Highest point End Pass type
(mag) Time Alt. Az. Time Alt. Az. Time Alt. Az.
06 Dec - 13:49:06 10° N 14:04:04 20° NE 14:15:35 10° ENE daylight
06 Dec - 16:13:21 10° NW 16:33:12 43° NNE 16:44:39 10° E daylight
06 Dec - 18:44:36 10° WNW 19:01:06 60° N 19:09:26 10° E daylight
06 Dec - 21:16:35 10° W 21:26:59 46° NNW 21:32:46 10° NE daylight
06 Dec - 23:48:22 10° WNW 23:50:34 12° NW 23:52:31 10° NNW daylight
07 Dec - 12:42:55 10° NNE 12:50:33 12° NE 12:57:28 10° ENE daylight
07 Dec - 14:59:52 10° NNW 15:19:53 35° NNE 15:32:49 10° E daylight
07 Dec - 17:29:19 10° WNW 17:48:40 57° NNE 17:58:45 10° E daylight
07 Dec - 20:01:55 10° W 20:15:39 58° N 20:22:41 10° ENE daylight
07 Dec - 22:33:23 10° W 22:40:13 25° NW 22:44:47 10° NNE daylight
08 Dec - 13:47:56 10° N 14:06:17 27° NE 14:19:52 10° E daylight
08 Dec - 16:14:23 10° NW 16:35:40 50° NNE 16:47:40 10° E daylight
08 Dec - 18:46:37 10° WNW 19:03:44 63° N 19:12:19 10° ENE daylight
08 Dec - 21:19:03 10° W 21:29:31 42° NNW 21:35:25 10° NE daylight
09 Dec - 12:38:35 10° N 12:52:40 18° NE 13:04:36 10° ENE daylight
09 Dec - 15:00:20 10° NNW 15:22:11 42° NNE 15:36:02 10° E daylight
09 Dec - 17:31:01 10° WNW 17:51:13 62° N 18:01:38 10° E daylight
09 Dec - 20:04:11 10° W 20:18:15 56° NNW 20:25:29 10° ENE daylight
09 Dec - 22:36:21 10° W 22:42:31 20° NW 22:46:50 10° N daylight
10 Dec - 13:47:38 10° NNW 14:08:25 33° NE 14:23:28 10° E daylight
10 Dec - 16:15:41 10° NW 16:38:05 57° NNE 16:50:36 10° E daylight
10 Dec - 18:48:42 10° W 19:06:20 64° N 19:15:09 10° ENE daylight
10 Dec - 21:21:32 10° W 21:31:56 36° NNW 21:37:55 10° NE daylight
11 Dec - 12:36:52 10° N 12:54:38 24° NE 13:09:21 10° E daylight
11 Dec - 15:01:11 10° NW 15:24:26 49° NNE 15:39:02 10° E daylight
11 Dec - 17:32:51 10° WNW 17:53:45 65° N 18:04:30 10° E daylight
11 Dec - 20:06:27 10° W 20:20:47 52° NNW 20:28:11 10° NE daylight
11 Dec - 22:39:39 10° W 22:44:40 16° NW 22:48:29 10° N daylight
12 Dec - 11:29:49 10° NNE 11:41:06 15° NE 11:51:37 10° ENE daylight
12 Dec - 13:47:55 10° NNW 14:10:28 40° NNE 14:26:43 10° E daylight
12 Dec - 16:17:14 10° WNW 16:40:29 62° NNE 16:53:27 10° E daylight
12 Dec - 18:50:49 10° W 19:08:54 63° N 19:17:57 10° ENE daylight
12 Dec - 21:24:06 10° W 21:34:14 31° NW 21:40:16 10° NNE daylight
13 Dec - 12:36:17 10° N 12:56:31 30° NE 13:13:12 10° E daylight
13 Dec - 15:02:21 10° NW 15:26:39 55° NNE 15:41:55 10° E daylight
13 Dec - 17:34:48 10° WNW 17:56:15 67° N 18:07:19 10° ENE daylight
13 Dec - 20:08:45 10° W 20:23:11 47° NNW 20:30:47 10° NE daylight
13 Dec - 22:43:49 10° WNW 22:46:43 12° NW 22:49:11 10° NNW daylight
14 Dec - 11:27:05 10° N 11:42:50 20° NE 11:57:25 10° E daylight
14 Dec - 13:48:39 10° NW 14:12:29 47° NNE 14:29:44 10° E daylight
14 Dec - 16:18:57 10° WNW 16:42:52 66° N 16:56:16 10° E daylight
14 Dec - 18:52:57 10° W 19:11:22 61° NNW 19:20:41 10° ENE daylight
14 Dec - 21:26:49 10° W 21:36:22 26° NW 21:42:21 10° N daylight
15 Dec - 10:25:41 10° NE 10:29:37 11° NE 10:33:32 10° ENE daylight
15 Dec - 12:36:25 10° NNW 12:58:18 37° NE 13:16:32 10° E daylight
15 Dec - 15:03:47 10° NW 15:28:52 61° NNE 15:44:43 10° E daylight
15 Dec - 17:36:50 10° W 17:58:43 68° N 18:10:06 10° ENE daylight
15 Dec - 20:11:04 10° W 20:25:28 42° NNW 20:33:15 10° NE daylight
